• în România
  • Lista ţărilor
  • Pe 7 zile
  • Temperatura apei
  • Hartă satelitară
  • Meteo pe hartă
  • Widget-uri
  • user-avatar
    Intrare

    Meteo pe oră la Inverness

    Astăzi, 21 Iulie, Sâmbătă

    Timp Temperatura Precipitaţii Vânt Presiune Umiditate
    00:00 +14°C° 0 mm 1 m/s 755 mmHg 97%
    01:00 +14°C° 0 mm 1 m/s 755 mmHg 97%
    02:00 +14°C° 0 mm 1 m/s 755 mmHg 97%
    03:00 +13°C° 0 mm 0 m/s 755 mmHg 97%
    04:00 +13°C° 0 mm 0 m/s 755 mmHg 96%
    05:00 +15°C° 0 mm 1 m/s 755 mmHg 95%
    06:00 +15°C° 0 mm 1 m/s 755 mmHg 93%
    07:00 +16°C° 0 mm 1 m/s 756 mmHg 89%
    08:00 +18°C° 0 mm 1 m/s 756 mmHg 84%
    09:00 +19°C° 0 mm 1 m/s 756 mmHg 80%
    10:00 +19°C° 0 mm 2 m/s 756 mmHg 75%
    11:00 +20°C° 0 mm 2 m/s 756 mmHg 70%
    12:00 +21°C° 0 mm 2 m/s 755 mmHg 63%
    13:00 +21°C° 0 mm 2 m/s 755 mmHg 65%
    14:00 +21°C° 0 mm 2 m/s 755 mmHg 67%
    15:00 +20°C° 0 mm 2 m/s 755 mmHg 68%
    16:00 +19°C° 0,1 mm 2 m/s 754 mmHg 73%
    17:00 +18°C° 0,1 mm 2 m/s 754 mmHg 77%
    18:00 +17°C° 0,1 mm 2 m/s 754 mmHg 82%
    19:00 +17°C° 0,2 mm 2 m/s 754 mmHg 85%
    20:00 +16°C° 0,2 mm 2 m/s 754 mmHg 87%
    21:00 +16°C° 0,2 mm 3 m/s 754 mmHg 90%
    22:00 +16°C° 0,1 mm 3 m/s 754 mmHg 91%
    23:00 +16°C° 0,1 mm 3 m/s 754 mmHg 93%

    Mâine, 22 Iulie, Duminică

    Timp Temperatura Precipitaţii Vânt Presiune Umiditate
    00:00 +16°C° 0,1 mm 3 m/s 753 mmHg 94%
    01:00 +16°C° 0 mm 3 m/s 753 mmHg 94%
    02:00 +17°C° 0 mm 3 m/s 753 mmHg 94%
    03:00 +17°C° 0 mm 3 m/s 753 mmHg 94%
    04:00 +17°C° 0 mm 3 m/s 753 mmHg 93%
    05:00 +18°C° 0 mm 3 m/s 753 mmHg 93%
    06:00 +18°C° 0 mm 4 m/s 753 mmHg 92%
    07:00 +18°C° 0 mm 4 m/s 754 mmHg 90%
    08:00 +19°C° 0 mm 4 m/s 754 mmHg 89%
    09:00 +19°C° 0 mm 4 m/s 754 mmHg 87%
    10:00 +20°C° 0 mm 5 m/s 754 mmHg 83%
    11:00 +21°C° 0 mm 5 m/s 754 mmHg 78%
    12:00 +22°C° 0 mm 6 m/s 754 mmHg 73%
    13:00 +22°C° 0 mm 5 m/s 754 mmHg 73%
    14:00 +22°C° 0 mm 5 m/s 755 mmHg 73%
    15:00 +22°C° 0 mm 5 m/s 755 mmHg 72%
    16:00 +21°C° 0,1 mm 4 m/s 755 mmHg 76%
    17:00 +20°C° 0,1 mm 4 m/s 755 mmHg 80%
    18:00 +19°C° 0,1 mm 3 m/s 755 mmHg 84%
    19:00 +18°C° 0,1 mm 2 m/s 755 mmHg 87%
    20:00 +18°C° 0,1 mm 2 m/s 755 mmHg 90%
    21:00 +18°C° 0,1 mm 1 m/s 755 mmHg 93%
    22:00 +18°C° 0,1 mm 1 m/s 755 mmHg 94%
    23:00 +18°C° 0,1 mm 1 m/s 755 mmHg 95%

    Poimâine, 23 Iulie, Luni

    Timp Temperatura Precipitaţii Vânt Presiune Umiditate
    00:00 +17°C° 0,1 mm 2 m/s 755 mmHg 96%
    01:00 +17°C° 0,5 mm 2 m/s 755 mmHg 96%
    02:00 +17°C° 0,5 mm 2 m/s 754 mmHg 96%
    03:00 +17°C° 0,5 mm 2 m/s 754 mmHg 96%
    04:00 +17°C° 0,4 mm 2 m/s 754 mmHg 96%
    05:00 +17°C° 0,4 mm 2 m/s 754 mmHg 95%
    06:00 +17°C° 0,4 mm 2 m/s 753 mmHg 95%
    07:00 +18°C° 0,2 mm 2 m/s 753 mmHg 94%
    08:00 +18°C° 0,2 mm 3 m/s 753 mmHg 93%
    09:00 +18°C° 0,2 mm 3 m/s 753 mmHg 92%
    10:00 +19°C° 0,1 mm 3 m/s 753 mmHg 87%
    11:00 +20°C° 0,1 mm 3 m/s 753 mmHg 81%
    12:00 +21°C° 0,1 mm 4 m/s 753 mmHg 76%
    13:00 +21°C° 0,1 mm 4 m/s 753 mmHg 75%
    14:00 +21°C° 0,1 mm 4 m/s 753 mmHg 74%
    15:00 +20°C° 0,1 mm 4 m/s 754 mmHg 73%
    16:00 +20°C° 0 mm 4 m/s 754 mmHg 74%
    17:00 +19°C° 0 mm 3 m/s 754 mmHg 74%
    18:00 +19°C° 0 mm 3 m/s 754 mmHg 74%
    19:00 +17°C° 0 mm 3 m/s 754 mmHg 78%
    20:00 +16°C° 0 mm 2 m/s 754 mmHg 83%
    21:00 +15°C° 0 mm 2 m/s 754 mmHg 87%
    22:00 +14°C° 0 mm 2 m/s 754 mmHg 89%
    23:00 +13°C° 0 mm 2 m/s 754 mmHg 92%

    24 Iulie, Marţi

    Timp Temperatura Precipitaţii Vânt Presiune Umiditate
    00:00 +13°C° 0 mm 1 m/s 754 mmHg 94%
    01:00 +12°C° 0 mm 2 m/s 754 mmHg 94%
    02:00 +12°C° 0 mm 2 m/s 754 mmHg 95%
    03:00 +12°C° 0 mm 2 m/s 754 mmHg 95%
    04:00 +12°C° 0 mm 2 m/s 754 mmHg 92%
    05:00 +13°C° 0 mm 2 m/s 754 mmHg 89%
    06:00 +13°C° 0 mm 2 m/s 754 mmHg 87%
    07:00 +13°C° 0 mm 3 m/s 754 mmHg 80%
    08:00 +14°C° 0 mm 3 m/s 754 mmHg 73%
    09:00 +15°C° 0 mm 4 m/s 755 mmHg 67%
    10:00 +17°C° 0 mm 4 m/s 755 mmHg 63%
    11:00 +18°C° 0 mm 4 m/s 755 mmHg 60%
    12:00 +18°C° 0 mm 4 m/s 755 mmHg 56%
    13:00 +19°C° 0 mm 4 m/s 755 mmHg 55%
    14:00 +19°C° 0 mm 4 m/s 755 mmHg 54%
    15:00 +19°C° 0 mm 4 m/s 755 mmHg 53%
    16:00 +18°C° 0,1 mm 4 m/s 755 mmHg 57%
    17:00 +18°C° 0,1 mm 4 m/s 756 mmHg 60%
    18:00 +17°C° 0,1 mm 4 m/s 756 mmHg 63%
    19:00 +16°C° 0 mm 3 m/s 756 mmHg 70%
    20:00 +13°C° 0 mm 3 m/s 756 mmHg 77%
    21:00 +13°C° 0 mm 2 m/s 757 mmHg 84%
    22:00 +12°C° 0 mm 2 m/s 757 mmHg 85%
    23:00 +10°C° 0 mm 2 m/s 757 mmHg 87%

    25 Iulie, Miercuri

    Timp Temperatura Precipitaţii Vânt Presiune Umiditate
    00:00 +10°C° 0 mm 2 m/s 757 mmHg 89%
    01:00 +10°C° 0 mm 2 m/s 757 mmHg 88%
    02:00 +10°C° 0 mm 2 m/s 757 mmHg 88%
    03:00 +10°C° 0 mm 2 m/s 757 mmHg 87%
    04:00 +12°C° 0 mm 2 m/s 757 mmHg 84%
    05:00 +12°C° 0 mm 2 m/s 757 mmHg 80%
    06:00 +13°C° 0 mm 2 m/s 757 mmHg 76%
    07:00 +15°C° 0 mm 2 m/s 758 mmHg 71%
    08:00 +16°C° 0 mm 3 m/s 758 mmHg 65%
    09:00 +18°C° 0 mm 3 m/s 758 mmHg 59%
    10:00 +19°C° 0 mm 3 m/s 758 mmHg 57%
    11:00 +20°C° 0 mm 3 m/s 758 mmHg 54%
    12:00 +21°C° 0 mm 3 m/s 757 mmHg 52%
    13:00 +21°C° 0 mm 3 m/s 757 mmHg 53%
    14:00 +21°C° 0 mm 3 m/s 757 mmHg 53%
    15:00 +21°C° 0 mm 4 m/s 757 mmHg 54%
    16:00 +21°C° 0 mm 4 m/s 756 mmHg 57%
    17:00 +21°C° 0 mm 4 m/s 756 mmHg 59%
    18:00 +20°C° 0 mm 5 m/s 755 mmHg 62%
    19:00 +19°C° 0 mm 4 m/s 755 mmHg 69%
    20:00 +18°C° 0 mm 4 m/s 755 mmHg 76%
    21:00 +17°C° 0 mm 4 m/s 755 mmHg 83%
    22:00 +15°C° 0 mm 4 m/s 755 mmHg 86%
    23:00 +15°C° 0 mm 4 m/s 754 mmHg 88%

    26 Iulie, Joi

    Timp Temperatura Precipitaţii Vânt Presiune Umiditate
    00:00 +14°C° 0 mm 3 m/s 754 mmHg 91%
    01:00 +14°C° 0 mm 3 m/s 754 mmHg 91%
    02:00 +13°C° 0 mm 3 m/s 754 mmHg 91%
    03:00 +13°C° 0 mm 3 m/s 754 mmHg 92%
    04:00 +14°C° 0 mm 3 m/s 754 mmHg 89%
    05:00 +14°C° 0 mm 3 m/s 755 mmHg 86%
    06:00 +16°C° 0 mm 3 m/s 755 mmHg 83%
    07:00 +17°C° 0 mm 3 m/s 755 mmHg 79%
    08:00 +19°C° 0 mm 3 m/s 756 mmHg 74%
    09:00 +20°C° 0 mm 3 m/s 756 mmHg 70%
    10:00 +21°C° 0 mm 3 m/s 757 mmHg 68%
    11:00 +21°C° 0 mm 3 m/s 757 mmHg 66%
    12:00 +23°C° 0 mm 2 m/s 758 mmHg 64%
    13:00 +23°C° 0,1 mm 2 m/s 758 mmHg 63%
    14:00 +23°C° 0,1 mm 2 m/s 758 mmHg 63%
    15:00 +23°C° 0,1 mm 2 m/s 758 mmHg 62%
    16:00 +23°C° 0,1 mm 2 m/s 758 mmHg 65%
    17:00 +21°C° 0,1 mm 2 m/s 758 mmHg 68%
    18:00 +21°C° 0,1 mm 2 m/s 758 mmHg 71%
    19:00 +19°C° 0 mm 2 m/s 758 mmHg 78%
    20:00 +18°C° 0 mm 2 m/s 758 mmHg 85%
    21:00 +16°C° 0 mm 2 m/s 758 mmHg 92%
    22:00 +16°C° 0 mm 2 m/s 758 mmHg 93%
    23:00 +15°C° 0 mm 1 m/s 758 mmHg 95%
    Arată mai mult